When you browse on this site, cookies collect data to enhance your experience and personalize the content and advertising you see.
Visit our Privacy Policy to learn more. By continuing to use the site, you agree to this use of cookies and data.
  • In France
  • List of Countries
  • For 7 days
  • Water Temperature
  • Satellite Maps
  • Weather Map
  • Weather Widgets
  • user-avatar
    Login

    Hourly Weather Bihać

    Today, 25 May, Saturday

    Time Temperature Precipitation Wind Pressure Humidity
    00:00 +12°C° 0 mm 1 mps 708 mmHg 85%
    01:00 +11°C° 0 mm 1 mps 708 mmHg 84%
    02:00 +11°C° 0 mm 1 mps 708 mmHg 83%
    03:00 +11°C° 0 mm 1 mps 708 mmHg 83%
    04:00 +11°C° 0 mm 1 mps 708 mmHg 82%
    05:00 +12°C° 0 mm 1 mps 708 mmHg 78%
    06:00 +14°C° 0 mm 1 mps 709 mmHg 74%
    07:00 +16°C° 0 mm 1 mps 709 mmHg 70%
    08:00 +19°C° 0 mm 1 mps 710 mmHg 64%
    09:00 +20°C° 0 mm 1 mps 710 mmHg 58%
    10:00 +22°C° 0 mm 1 mps 710 mmHg 52%
    11:00 +22°C° 0 mm 1 mps 710 mmHg 53%
    12:00 +21°C° 0 mm 2 mps 710 mmHg 55%
    13:00 +21°C° 0 mm 2 mps 710 mmHg 56%
    14:00 +21°C° 0.4 mm 2 mps 710 mmHg 63%
    15:00 +20°C° 0.4 mm 2 mps 709 mmHg 71%
    16:00 +19°C° 0.4 mm 2 mps 709 mmHg 78%
    17:00 +19°C° 0.3 mm 1 mps 709 mmHg 83%
    18:00 +18°C° 0.3 mm 1 mps 709 mmHg 87%
    19:00 +15°C° 0.3 mm 1 mps 708 mmHg 92%
    20:00 +15°C° 0 mm 1 mps 709 mmHg 93%
    21:00 +14°C° 0 mm 1 mps 709 mmHg 94%
    22:00 +13°C° 0 mm 1 mps 709 mmHg 95%
    23:00 +13°C° 0 mm 1 mps 709 mmHg 95%

    Tomorrow, 26 May, Sunday

    Time Temperature Precipitation Wind Pressure Humidity
    00:00 +13°C° 0 mm 1 mps 709 mmHg 95%
    01:00 +13°C° 0 mm 1 mps 709 mmHg 95%
    02:00 +13°C° 0 mm 1 mps 709 mmHg 94%
    03:00 +12°C° 0 mm 1 mps 709 mmHg 93%
    04:00 +12°C° 0 mm 1 mps 708 mmHg 92%
    05:00 +13°C° 0 mm 1 mps 709 mmHg 87%
    06:00 +15°C° 0 mm 1 mps 709 mmHg 82%
    07:00 +16°C° 0 mm 1 mps 709 mmHg 77%
    08:00 +18°C° 0 mm 1 mps 709 mmHg 69%
    09:00 +20°C° 0 mm 1 mps 710 mmHg 62%
    10:00 +20°C° 0 mm 2 mps 710 mmHg 55%
    11:00 +21°C° 0 mm 2 mps 710 mmHg 56%
    12:00 +21°C° 0 mm 2 mps 710 mmHg 58%
    13:00 +21°C° 0 mm 3 mps 710 mmHg 59%
    14:00 +19°C° 0.6 mm 2 mps 710 mmHg 70%
    15:00 +18°C° 0.6 mm 2 mps 709 mmHg 81%
    16:00 +16°C° 0.6 mm 2 mps 709 mmHg 91%
    17:00 +16°C° 0.2 mm 1 mps 709 mmHg 92%
    18:00 +15°C° 0.2 mm 1 mps 709 mmHg 93%
    19:00 +15°C° 0.2 mm 1 mps 709 mmHg 94%
    20:00 +15°C° 0.1 mm 1 mps 709 mmHg 92%
    21:00 +15°C° 0.1 mm 1 mps 709 mmHg 91%
    22:00 +15°C° 0.1 mm 1 mps 709 mmHg 89%
    23:00 +14°C° 0 mm 1 mps 709 mmHg 87%

    Day after tomorrow, 27 May, Monday

    Time Temperature Precipitation Wind Pressure Humidity
    00:00 +14°C° 0 mm 1 mps 708 mmHg 86%
    01:00 +14°C° 0 mm 1 mps 708 mmHg 84%
    02:00 +14°C° 0 mm 1 mps 708 mmHg 83%
    03:00 +14°C° 0 mm 1 mps 708 mmHg 82%
    04:00 +14°C° 0 mm 1 mps 707 mmHg 81%
    05:00 +15°C° 0 mm 1 mps 707 mmHg 80%
    06:00 +16°C° 0 mm 1 mps 708 mmHg 79%
    07:00 +18°C° 0 mm 1 mps 708 mmHg 78%
    08:00 +20°C° 0 mm 1 mps 708 mmHg 69%
    09:00 +20°C° 0 mm 2 mps 708 mmHg 60%
    10:00 +23°C° 0 mm 2 mps 708 mmHg 51%
    11:00 +21°C° 0 mm 3 mps 708 mmHg 55%
    12:00 +20°C° 0 mm 3 mps 708 mmHg 59%
    13:00 +19°C° 0 mm 4 mps 708 mmHg 62%
    14:00 +18°C° 0.6 mm 3 mps 707 mmHg 72%
    15:00 +17°C° 0.6 mm 3 mps 707 mmHg 81%
    16:00 +15°C° 0.6 mm 2 mps 707 mmHg 91%
    17:00 +15°C° 0 mm 2 mps 706 mmHg 90%
    18:00 +15°C° 0 mm 2 mps 706 mmHg 90%
    19:00 +15°C° 0 mm 1 mps 705 mmHg 90%
    20:00 +14°C° 0 mm 1 mps 705 mmHg 90%
    21:00 +14°C° 0 mm 1 mps 705 mmHg 90%
    22:00 +13°C° 0 mm 1 mps 705 mmHg 91%
    23:00 +13°C° 0 mm 1 mps 704 mmHg 90%

    28 May, Tuesday

    Time Temperature Precipitation Wind Pressure Humidity
    00:00 +14°C° 0 mm 1 mps 704 mmHg 89%
    01:00 +14°C° 0 mm 1 mps 704 mmHg 88%
    02:00 +14°C° 0 mm 1 mps 703 mmHg 88%
    03:00 +14°C° 0 mm 1 mps 703 mmHg 88%
    04:00 +13°C° 0 mm 1 mps 703 mmHg 89%
    05:00 +14°C° 0.2 mm 1 mps 703 mmHg 89%
    06:00 +14°C° 0.2 mm 1 mps 703 mmHg 89%
    07:00 +15°C° 0.2 mm 1 mps 703 mmHg 89%
    08:00 +16°C° 0.8 mm 2 mps 703 mmHg 89%
    09:00 +16°C° 0.8 mm 3 mps 703 mmHg 89%
    10:00 +17°C° 0.8 mm 4 mps 703 mmHg 89%
    11:00 +17°C° 0.7 mm 4 mps 703 mmHg 88%
    12:00 +17°C° 0.7 mm 4 mps 703 mmHg 88%
    13:00 +18°C° 0.7 mm 4 mps 703 mmHg 87%
    14:00 +18°C° 0.4 mm 4 mps 703 mmHg 88%
    15:00 +17°C° 0.4 mm 4 mps 703 mmHg 88%
    16:00 +17°C° 0.4 mm 4 mps 703 mmHg 88%
    17:00 +17°C° 0.1 mm 3 mps 703 mmHg 90%
    18:00 +16°C° 0.1 mm 3 mps 703 mmHg 92%
    19:00 +14°C° 0.1 mm 3 mps 703 mmHg 94%
    20:00 +14°C° 0 mm 3 mps 703 mmHg 94%
    21:00 +13°C° 0 mm 3 mps 703 mmHg 95%
    22:00 +14°C° 0 mm 2 mps 704 mmHg 96%
    23:00 +14°C° 0.1 mm 2 mps 704 mmHg 96%

    29 May, Wednesday

    Time Temperature Precipitation Wind Pressure Humidity
    00:00 +14°C° 0.1 mm 2 mps 704 mmHg 95%
    01:00 +14°C° 0.1 mm 2 mps 704 mmHg 95%
    02:00 +14°C° 0.2 mm 2 mps 704 mmHg 96%
    03:00 +13°C° 0.2 mm 2 mps 704 mmHg 96%
    04:00 +13°C° 0.2 mm 2 mps 705 mmHg 97%
    05:00 +14°C° 0.2 mm 2 mps 705 mmHg 96%
    06:00 +14°C° 0.2 mm 2 mps 705 mmHg 95%
    07:00 +14°C° 0.2 mm 3 mps 706 mmHg 94%
    08:00 +16°C° 0.8 mm 3 mps 706 mmHg 92%
    09:00 +17°C° 0.8 mm 3 mps 706 mmHg 89%
    10:00 +17°C° 0.8 mm 3 mps 707 mmHg 87%
    11:00 +17°C° 1.6 mm 3 mps 707 mmHg 89%
    12:00 +16°C° 1.6 mm 3 mps 707 mmHg 90%
    13:00 +16°C° 1.6 mm 3 mps 707 mmHg 92%
    14:00 +16°C° 1.1 mm 3 mps 707 mmHg 91%
    15:00 +17°C° 1.1 mm 3 mps 708 mmHg 90%
    16:00 +17°C° 1.1 mm 2 mps 708 mmHg 88%
    17:00 +16°C° 0.9 mm 2 mps 708 mmHg 89%
    18:00 +15°C° 0.9 mm 1 mps 708 mmHg 90%
    19:00 +15°C° 0.9 mm 1 mps 708 mmHg 91%
    20:00 +14°C° 0.2 mm 1 mps 709 mmHg 91%
    21:00 +13°C° 0.2 mm 1 mps 709 mmHg 92%
    22:00 +12°C° 0.2 mm 1 mps 710 mmHg 92%
    23:00 +12°C° 0.1 mm 1 mps 710 mmHg 93%

    30 May, Thursday

    Time Temperature Precipitation Wind Pressure Humidity
    00:00 +10°C° 0.1 mm 2 mps 710 mmHg 93%
    01:00 +10°C° 0.1 mm 2 mps 710 mmHg 94%
    02:00 +10°C° 0.1 mm 2 mps 710 mmHg 94%
    03:00 +10°C° 0.1 mm 2 mps 710 mmHg 95%
    04:00 +10°C° 0.1 mm 3 mps 710 mmHg 95%
    05:00 +11°C° 0.1 mm 3 mps 711 mmHg 94%
    06:00 +11°C° 0.1 mm 3 mps 711 mmHg 93%
    07:00 +11°C° 0.1 mm 3 mps 711 mmHg 92%
    08:00 +11°C° 0.1 mm 3 mps 711 mmHg 89%
    09:00 +12°C° 0.1 mm 3 mps 711 mmHg 87%
    10:00 +13°C° 0.1 mm 3 mps 712 mmHg 84%
    11:00 +13°C° 0.1 mm 3 mps 712 mmHg 81%
    12:00 +14°C° 0.1 mm 3 mps 712 mmHg 77%
    13:00 +16°C° 0.1 mm 3 mps 712 mmHg 74%
    14:00 +16°C° 0.2 mm 3 mps 711 mmHg 75%
    15:00 +16°C° 0.2 mm 2 mps 711 mmHg 77%
    16:00 +16°C° 0.2 mm 2 mps 711 mmHg 78%
    17:00 +15°C° 0.1 mm 2 mps 711 mmHg 81%
    18:00 +14°C° 0.1 mm 2 mps 710 mmHg 85%
    19:00 +13°C° 0.1 mm 1 mps 710 mmHg 88%
    20:00 +12°C° 0 mm 1 mps 710 mmHg 90%
    21:00 +11°C° 0 mm 1 mps 710 mmHg 92%
    22:00 +10°C° 0 mm 1 mps 710 mmHg 94%
    23:00 +10°C° 0 mm 1 mps 710 mmHg 94%
    Show more